Saint George, UT

8:57 AM MST on February 27, 2017 (GMT -0700)
Saint George Municipal

Weather History for KSGU - April, 2014

Change the Weather History Date:

Sunday, April 13, 2014

  Actual Average Record
Temperature  
Mean Temperature 65 °F -  
Max Temperature 73 °F 76 °F 93 °F (1936)
Min Temperature 57 °F 44 °F 31 °F (1983)
Growing Degree Days 15 (Base 50)    
Moisture  
Dew Point 19 °F    
Average Humidity 17    
Maximum Humidity 30    
Minimum Humidity 10    
Precipitation  
Precipitation 0.00 in - - ()
Sea Level Pressure  
Sea Level Pressure 29.84 in    
Wind  
Wind Speed 11 mph (NW)    
Max Wind Speed 33 mph    
Max Gust Speed 39 mph    
Visibility 10 miles    
Events      
Averages and records for this station are not official NWS values.
T = Trace of Precipitation, MM = Missing Value Source: NWS Daily Summary

Daily Weather History Graph

Daily Weather History Graph

Search for Another Location

Airport or City:

Trip Planner

Search our weather history database for the weather conditions in past years. The results will help you decide how hot, cold, wet, or windy it might be!

Date:

Astronomy

Apr. 13, 2014 Rise Set
Actual Time 7:02 AM MDT 8:07 PM MDT
Civil Twilight 6:35 AM MDT 8:33 PM MDT
Nautical Twilight 6:04 AM MDT 9:05 PM MDT
Astronomical Twilight 5:31 AM MDT 9:38 PM MDT
Moon 6:50 PM MDT (4/13) 6:01 AM MDT (4/13)
Length of Visible Light 13h 58m
Length of Day
13h 04m
Waxing Gibbous, 97% of the Moon is Illuminated
Apr 13
Waxing Gibbous
Apr 15
Full
Apr 22
Last Quarter
Apr 29
New
May 6
First Quarter

Hourly Weather History & Observations

Time (MDT) Temp. Dew Point Humidity Pressure Visibility Wind Dir Wind Speed Gust Speed Precip Events Conditions
12:15 AM 66.2 °F 19.4 °F 17% 29.67 in 10.0 mi SSW 5.8 mph - N/A   Clear
12:35 AM 66.2 °F 17.6 °F 15% 29.67 in 10.0 mi SSW 4.6 mph - N/A   Clear
12:55 AM 66.2 °F 19.4 °F 17% 29.67 in 10.0 mi Calm Calm - N/A   Clear
1:15 AM 62.6 °F 17.6 °F 18% 29.67 in 10.0 mi South 4.6 mph - N/A   Clear
1:35 AM 64.4 °F 19.4 °F 18% 29.67 in 10.0 mi WSW 3.5 mph - N/A   Clear
1:55 AM 62.6 °F 19.4 °F 19% 29.67 in 10.0 mi Calm Calm - N/A   Clear
2:15 AM 62.6 °F 19.4 °F 19% 29.67 in 10.0 mi SSW 6.9 mph - N/A   Clear
2:35 AM 66.2 °F 21.2 °F 18% 29.67 in 10.0 mi SSW 9.2 mph - N/A   Clear
2:55 AM 66.2 °F 21.2 °F 18% 29.66 in 10.0 mi South 9.2 mph - N/A   Clear
3:15 AM 64.4 °F 21.2 °F 19% 29.66 in 10.0 mi SSW 6.9 mph - N/A   Clear
3:35 AM 62.6 °F 21.2 °F 20% 29.66 in 10.0 mi South 6.9 mph - N/A   Clear
3:55 AM 60.8 °F 21.2 °F 22% 29.66 in 10.0 mi NW 4.6 mph - N/A   Clear
4:15 AM 59.0 °F 21.2 °F 23% 29.67 in 10.0 mi Calm Calm - N/A   Clear
4:35 AM 60.8 °F 21.2 °F 22% 29.68 in 10.0 mi Calm Calm - N/A   Clear
4:55 AM 62.6 °F 21.2 °F 20% 29.68 in 10.0 mi Calm Calm - N/A   Clear
5:15 AM 60.8 °F 23.0 °F 23% 29.68 in 10.0 mi East 3.5 mph - N/A   Scattered Clouds
5:35 AM 60.8 °F 23.0 °F 23% 29.70 in 10.0 mi NW 5.8 mph - N/A   Partly Cloudy
5:55 AM 64.4 °F 24.8 °F 22% 29.71 in 10.0 mi NW 6.9 mph - N/A   Partly Cloudy
6:15 AM 64.4 °F 24.8 °F 22% 29.71 in 10.0 mi West 10.4 mph - N/A   Partly Cloudy
6:35 AM 64.4 °F 26.6 °F 24% 29.72 in 10.0 mi West 11.5 mph - N/A   Partly Cloudy
6:55 AM 64.4 °F 30.2 °F 28% 29.72 in 10.0 mi WSW 13.8 mph 18.4 mph N/A   Mostly Cloudy
7:15 AM 66.2 °F 30.2 °F 26% 29.74 in 10.0 mi WNW 4.6 mph - N/A   Overcast
7:35 AM 64.4 °F 30.2 °F 28% 29.75 in 10.0 mi WNW 3.5 mph - N/A   Overcast
7:55 AM 66.2 °F 30.2 °F 26% 29.76 in 10.0 mi West 11.5 mph - N/A   Overcast
8:15 AM 64.4 °F 30.2 °F 28% 29.78 in 10.0 mi West 8.1 mph - N/A   Scattered Clouds
8:35 AM 64.4 °F 32.0 °F 30% 29.79 in 10.0 mi WSW 8.1 mph - N/A   Clear
8:55 AM 66.2 °F 30.2 °F 26% 29.80 in 10.0 mi West 12.7 mph - N/A   Clear
9:55 AM 69.8 °F 23.0 °F 17% 29.81 in 10.0 mi WNW 19.6 mph 31.1 mph N/A   Clear
10:15 AM 69.8 °F 19.4 °F 15% 29.82 in 8.0 mi West 21.9 mph 28.8 mph N/A   Clear
10:35 AM 69.8 °F 17.6 °F 14% 29.83 in 10.0 mi NW 20.7 mph 29.9 mph N/A   Clear
10:55 AM 69.8 °F 15.8 °F 13% 29.84 in 10.0 mi NW 25.3 mph 29.9 mph N/A   Clear
11:15 AM 69.8 °F 15.8 °F 13% 29.84 in 5.0 mi WNW 28.8 mph 39.1 mph N/A   Clear
11:35 AM 69.8 °F 12.2 °F 11% 29.85 in 10.0 mi West 21.9 mph 33.4 mph N/A   Clear
11:55 AM 69.8 °F 12.2 °F 11% 29.86 in 10.0 mi West 20.7 mph 32.2 mph N/A   Clear
12:15 PM 71.6 °F 12.2 °F 10% 29.86 in 10.0 mi West 18.4 mph 28.8 mph N/A   Clear
12:35 PM 69.8 °F 12.2 °F 11% 29.86 in 10.0 mi NW 20.7 mph 25.3 mph N/A   Clear
12:55 PM 69.8 °F 12.2 °F 11% 29.86 in 10.0 mi NW 23.0 mph 28.8 mph N/A   Clear
1:15 PM 71.6 °F 12.2 °F 10% 29.86 in 10.0 mi NW 19.6 mph 25.3 mph N/A   Clear
1:35 PM 71.6 °F 12.2 °F 10% 29.87 in 10.0 mi WNW 17.3 mph 27.6 mph N/A   Clear
1:55 PM 71.6 °F 12.2 °F 10% 29.86 in 10.0 mi WNW 13.8 mph 25.3 mph N/A   Clear
2:15 PM 71.6 °F 14.0 °F 11% 29.86 in 10.0 mi NW 17.3 mph 31.1 mph N/A   Clear
2:35 PM 71.6 °F 14.0 °F 11% 29.86 in 10.0 mi West 12.7 mph - N/A   Clear
2:55 PM 73.4 °F 14.0 °F 10% 29.86 in 10.0 mi NW 13.8 mph 26.5 mph N/A   Clear
3:15 PM 71.6 °F 14.0 °F 11% 29.86 in 10.0 mi WNW 13.8 mph 26.5 mph N/A   Clear
3:35 PM 71.6 °F 14.0 °F 11% 29.85 in 10.0 mi West 16.1 mph 27.6 mph N/A   Clear
3:55 PM 71.6 °F 14.0 °F 11% 29.86 in 10.0 mi North 15.0 mph 21.9 mph N/A   Clear
4:15 PM 71.6 °F 14.0 °F 11% 29.86 in 10.0 mi NNW 21.9 mph 27.6 mph N/A   Clear
4:35 PM 71.6 °F 14.0 °F 11% 29.87 in 10.0 mi North 18.4 mph 27.6 mph N/A   Clear
4:55 PM 71.6 °F 14.0 °F 11% 29.88 in 10.0 mi North 15.0 mph 25.3 mph N/A   Clear
5:15 PM 71.6 °F 15.8 °F 12% 29.89 in 10.0 mi North 18.4 mph 29.9 mph N/A   Clear
5:35 PM 71.6 °F 15.8 °F 12% 29.89 in 10.0 mi NNW 13.8 mph 18.4 mph N/A   Clear
5:55 PM 69.8 °F 14.0 °F 12% 29.89 in 10.0 mi North 18.4 mph 24.2 mph N/A   Clear
6:15 PM 71.6 °F 12.2 °F 10% 29.91 in 10.0 mi North 21.9 mph - N/A   Clear
6:35 PM 69.8 °F 12.2 °F 11% 29.92 in 10.0 mi North 17.3 mph 24.2 mph N/A   Clear
6:55 PM 69.8 °F 12.2 °F 11% 29.92 in 10.0 mi NNW 11.5 mph 24.2 mph N/A   Clear
7:15 PM 68.0 °F 12.2 °F 12% 29.94 in 10.0 mi NNE 17.3 mph - N/A   Clear
7:35 PM 66.2 °F 12.2 °F 12% 29.95 in 10.0 mi NE 20.7 mph - N/A   Clear
7:55 PM 64.4 °F 12.2 °F 13% 29.97 in 10.0 mi NE 21.9 mph 29.9 mph N/A   Clear
8:15 PM 64.4 °F 12.2 °F 13% 29.98 in 10.0 mi North 21.9 mph - N/A   Clear
8:35 PM 62.6 °F 15.8 °F 16% 30.00 in 10.0 mi NNE 27.6 mph 39.1 mph N/A   Clear
8:55 PM 60.8 °F 17.6 °F 19% 30.02 in 10.0 mi NE 29.9 mph 36.8 mph N/A   Clear
9:15 PM 60.8 °F 19.4 °F 20% 30.04 in 10.0 mi NE 33.4 mph 39.1 mph N/A   Clear
9:35 PM 60.8 °F 19.4 °F 20% 30.05 in 10.0 mi NE 29.9 mph 36.8 mph N/A   Clear
9:55 PM 59.0 °F 21.2 °F 23% 30.06 in 10.0 mi NE 23.0 mph 36.8 mph N/A   Clear
10:15 PM 59.0 °F 21.2 °F 23% 30.08 in 10.0 mi NE 23.0 mph 31.1 mph N/A   Clear
10:35 PM 59.0 °F 21.2 °F 23% 30.09 in 10.0 mi NE 19.6 mph 27.6 mph N/A   Clear
10:55 PM 57.2 °F 21.2 °F 25% 30.10 in 10.0 mi NE 17.3 mph 24.2 mph N/A   Clear
11:15 PM 57.2 °F 21.2 °F 25% 30.11 in 10.0 mi NNE 16.1 mph 20.7 mph N/A   Clear
11:35 PM 57.2 °F 21.2 °F 25% 30.12 in 10.0 mi NE 18.4 mph 23.0 mph N/A   Clear
11:55 PM 57.2 °F 21.2 °F 25% 30.13 in 10.0 mi NNE 19.6 mph 23.0 mph N/A   Clear